SKYSAT 1

导读

SKYSAT 1是美国发射的高清遥感卫星,于2013年11月21日发射入轨,属于SkySat系列小卫星,由Skybox Imaging公司主导打造。该卫星具备亚米级高分辨率成像能力,可提供高质量对地观测影像,服务于测绘、环境监测、城市规划、灾害评估等多个领域,推动了商业高清遥感卫星应用发展。

Basic Information
目录编号:
39418
目录名称:
SKYSAT 1
国际标识:
2013-066C
轨道中心:
EARTH
卫星名称:
SKYSAT 1
卫星全名:
--
卫星状态:
在轨 (已飞行4587 天)
发射日期:
2013-11-21 UTC
国别 :
美国 (US)
星等 :
--
Orbit Information
数据来源 国际轨道数据 AOE轨道数据
星历时间 2026-06-12T10:22:01+0800
1天前
查看轨道信息
2026-06-09T00:00:00+0800
4天前
查看轨道信息
半长轴 6905.354km 6905.402km
偏心率 0.002053 0.002079
轨道倾角 97.382° 97.383°
近地点辐角 335.987° 348.360°
升交点赤经 212.658° 209.335°
平近点角 24.041° 51.141°
近地点 513.04km 512.908km
远地点 541.394km 541.622km
周期 95.178分钟 95.179分钟
每日圈数 15.129475 15.129318
Detailed Information
使用方式:
暂无
2D Orbit Map
3D Orbit Map
Orbit Altitude Analysis Chart
Orbit Inclination Analysis Chart
Orbit Comprehensive Analysis Chart
View Comprehensive Chart